Location: 22
(39.7117°N, 89.5929°W)
Time: 07:34:29
(UTC-05:00)

ISS - Pass Details

Date: 01 October 2021
Orbit: 417 x 423 km, 51.6° (Epoch: 16 October)

Event Time Altitude Azimuth Distance (km) Brightness Sun altitude
Rises 19:25:56 0° 314° (NW) 2,364 0.9 -9.6°
Reaches altitude 10° 19:28:30 10° 334° (NNW) 1,499 -0.5 -10.1°
Maximum altitude 19:30:54 18° 20° (NNE) 1,104 -1.8 -10.6°
Enters shadow 19:32:48 12° 59° (ENE) 1,363 -1.6 -10.9°
